CW0728 Weather Reports


time (UTC)temp
F
wind
direction
speed
knots
gust
knots
rain 1hr
in
rain 24hr
in
rain mn
in
humidity
%
barometer
mb
20260906074532 54 46 0.0 0.0 0.00 0.03 0.00 89 1012.5
20260906073006 54 46 0.0 0.0 0.00 0.03 0.00 89 1012.7
20260906071542 54 46 0.0 0.0 0.00 0.03 0.00 89 1012.4
20260906070017 54 46 0.0 0.0 0.00 0.03 0.00 89 1012.2
20260906064554 54 46 0.0 0.0 0.00 0.03 0.00 88 1012.1
20260906063040 54 46 0.0 0.0 0.00 0.03 0.00 88 1012.0
20260906061516 54 46 0.0 0.0 0.00 0.03 0.00 87 1012.0
20260906060056 55 46 0.0 0.0 0.00 0.03 0.00 86 1012.1
20260906054542 55 46 0.0 0.0 0.00 0.03 0.00 86 1012.1
20260906053005 55 46 0.0 0.0 0.00 0.03 0.00 85 1012.1
20260906051603 56 46 0.0 0.0 0.00 0.03 0.00 84 1012.0
20260906050017 56 46 0.0 0.0 0.00 0.03 0.00 83 1012.1
20260906044603 56 46 0.0 0.0 0.00 0.03 0.00 83 1011.9
20260906043043 56 331 0.0 0.0 0.00 0.03 0.00 83 1011.9
20260906041513 57 92 0.0 0.0 0.00 0.03 0.00 82 1012.0
20260906040125 57 92 0.0 0.0 0.00 0.03 0.03 81 1012.0
20260906034524 58 97 0.0 0.0 0.00 0.03 0.03 81 1011.9
20260906033030 59 97 0.0 0.0 0.00 0.03 0.03 79 1011.9
20260906031549 59 97 0.0 0.0 0.00 0.03 0.03 78 1011.8
20260906030032 60 104 0.0 0.0 0.00 0.03 0.03 78 1011.7
20260906024505 60 113 0.0 0.0 0.00 0.03 0.03 78 1011.6
20260906023043 60 89 0.0 0.0 0.00 0.03 0.03 78 1011.5
20260906021516 59 28 0.0 0.0 0.00 0.03 0.03 80 1011.4
20260906020055 59 53 0.0 0.0 0.00 0.03 0.03 81 1011.3
20260906014530 58 314 0.0 0.0 0.00 0.03 0.03 82 1011.5
20260906013018 59 95 0.0 0.0 0.00 0.03 0.03 80 1011.4
20260906011548 60 95 0.0 0.0 0.00 0.03 0.03 78 1011.4
20260906010034 61 95 0.0 0.0 0.00 0.03 0.03 77 1011.4
20260906004519 62 95 0.0 0.0 0.00 0.03 0.03 75 1011.3
20260906003056 62 95 0.0 0.0 0.00 0.03 0.03 74 1011.1
20260906001533 62 95 0.0 0.0 0.00 0.03 0.03 73 1011.0
20260906000006 62 56 0.0 0.0 0.00 0.03 0.03 76 1011.0
20260905234546 61 140 0.0 0.0 0.00 0.03 0.03 82 1010.9
20260905233025 62 140 0.0 0.0 0.00 0.03 0.03 84 1010.7
20260905231504 63 140 0.0 0.0 0.00 0.03 0.03 83 1010.6
20260905230039 64 140 0.0 0.0 0.00 0.03 0.03 81 1010.5
20260905224532 65 140 0.0 0.0 0.00 0.03 0.03 79 1010.5
20260905223055 66 140 0.0 0.0 0.00 0.03 0.03 78 1010.3
20260905221536 66 140 0.0 0.0 0.00 0.03 0.03 75 1010.2
20260905220019 67 140 0.0 0.0 0.00 0.03 0.03 73 1010.0
20260905214551 68 208 0.0 0.0 0.00 0.03 0.03 71 1009.9
20260905213027 72 87 0.0 0.0 0.00 0.03 0.03 59 1009.7
20260905211508 71 121 0.0 0.0 0.00 0.03 0.03 63 1009.6
20260905210049 68 83 0.0 0.0 0.00 0.03 0.03 68 1009.4
20260905204516 68 160 0.0 0.0 0.00 0.03 0.03 73 1009.3
20260905203056 68 102 0.0 0.0 0.00 0.03 0.03 72 1009.2
20260905201541 68 196 0.0 0.0 0.00 0.03 0.03 74 1009.1
20260905200028 68 134 0.0 0.0 0.00 0.03 0.03 73 1009.1
20260905194505 70 183 0.0 0.0 0.00 0.03 0.03 70 1009.1
20260905193043 71 119 0.0 0.0 0.00 0.03 0.03 71 1009.0
20260905191517 73 145 0.0 0.0 0.00 0.03 0.03 63 1009.0
20260905190052 72 103 0.0 0.0 0.00 0.03 0.03 61 1009.0
20260905184547 71 80 0.0 1.7 0.00 0.03 0.03 64 1008.9
20260905183011 69 104 0.0 4.3 0.00 0.03 0.03 68 1008.9
20260905181548 69 84 0.0 3.5 0.00 0.03 0.03 68 1009.0
20260905180020 69 355 0.0 0.9 0.00 0.03 0.03 70 1009.0
20260905174600 69 88 0.0 0.0 0.00 0.03 0.03 70 1009.0
20260905173052 68 111 0.0 2.6 0.00 0.03 0.03 80 1008.9
20260905171513 67 103 0.9 7.0 0.00 0.03 0.03 81 1009.1
20260905170100 67 86 0.0 1.7 0.02 0.03 0.03 87 1009.1
20260905164526 66 117 0.0 0.0 0.03 0.03 0.03 89 1009.2
20260905163114 65 109 0.0 0.0 0.03 0.03 0.03 86 1009.3
20260905161557 66 84 0.0 3.5 0.03 0.03 0.03 82 1009.4
20260905160015 69 96 0.0 2.6 0.00 0.00 0.00 72 1009.3
20260905154548 70 59 0.0 0.0 0.00 0.00 0.00 72 1009.0
20260905153032 69 44 0.0 0.0 0.00 0.00 0.00 73 1009.0
20260905151517 68 19 0.0 0.0 0.00 0.00 0.00 73 1009.1
20260905150043 68 107 0.0 5.2 0.00 0.00 0.00 74 1009.0
20260905144523 68 32 0.0 0.9 0.00 0.00 0.00 75 1009.0
20260905143054 67 79 0.0 0.9 0.00 0.00 0.00 75 1008.9
20260905141537 66 88 0.0 0.9 0.00 0.00 0.00 77 1008.8
20260905134536 66 32 0.0 0.0 0.00 0.00 0.00 78 1008.5
20260905133010 65 61 0.9 7.8 0.00 0.00 0.00 79 1008.4
20260905131547 65 120 1.7 7.8 0.00 0.00 0.00 79 1008.1
20260905130030 64 45 0.0 8.7 0.00 0.00 0.00 80 1008.1
20260905124505 64 78 0.0 7.8 0.00 0.00 0.00 81 1007.9
20260905123049 63 51 0.0 0.0 0.00 0.00 0.00 83 1007.8
20260905121515 63 55 0.0 3.5 0.00 0.00 0.00 85 1007.9
20260905120053 62 110 0.0 0.0 0.00 0.00 0.00 86 1007.9
20260905114525 61 53 0.0 5.2 0.00 0.00 0.00 88 1007.9
20260905113002 60 105 0.0 0.0 0.00 0.00 0.00 90 1007.7
20260905111551 60 284 0.0 0.0 0.00 0.00 0.00 91 1007.6
20260905110037 59 21 0.0 2.6 0.00 0.00 0.00 92 1007.5
20260905104508 58 327 0.0 0.0 0.00 0.00 0.00 93 1007.3
20260905103043 58 339 0.0 0.0 0.00 0.00 0.00 93 1007.2
20260905101524 58 339 0.0 0.0 0.00 0.00 0.00 93 1007.1
20260905100004 57 337 0.0 0.0 0.00 0.00 0.00 93 1007.0
20260905094549 56 337 0.0 0.0 0.00 0.00 0.00 92 1006.8
20260905093016 56 337 0.0 0.0 0.00 0.00 0.00 91 1006.7
20260905091601 57 337 0.0 0.0 0.00 0.00 0.00 91 1006.6
20260905090030 57 337 0.0 0.0 0.00 0.00 0.00 91 1006.7
20260905084503 57 337 0.0 0.0 0.00 0.00 0.00 90 1006.5
20260905083106 58 337 0.0 0.0 0.00 0.00 0.00 90 1006.3
20260905081524 58 337 0.0 0.0 0.00 0.00 0.00 91 1006.4